This is the latest recevied weather packets stored in our database for station/object G4KVI. If no packets are shown the sender has not sent any weather packets the latest 10 day(s).
| Time | Temp. | Humidity | Pressure | Rain* | Wind** | Luminosity | Snow |
|---|---|---|---|---|---|---|---|
| 1777719305 | 16.67° C | 59% | 1018.3 hPa | 0 mm | - | 601 W/m² | - |
| 1777719005 | 17.22° C | 59% | 1018.3 hPa | 0 mm | - | 539 W/m² | - |
| 1777718705 | 17.22° C | 58% | 1018.2 hPa | 0 mm | - | 462 W/m² | - |
| 1777718405 | 16.67° C | 60% | 1018.5 hPa | 0 mm | - | 474 W/m² | - |
| 1777718105 | 16.67° C | 62% | 1018.6 hPa | 0 mm | - | 363 W/m² | - |
| 1777717805 | 16.67° C | 62% | 1018.7 hPa | 0 mm | - | 564 W/m² | - |
| 1777717505 | 16.67° C | 61% | 1018.8 hPa | 0 mm | - | 439 W/m² | - |
| 1777717205 | 16.67° C | 61% | 1018.6 hPa | 0 mm | - | 590 W/m² | - |
| 1777716905 | 16.11° C | 63% | 1018.9 hPa | 0 mm | - | 482 W/m² | - |
| 1777716605 | 16.11° C | 62% | 1019.1 hPa | 0 mm | - | 395 W/m² | - |
| 1777716305 | 16.11° C | 62% | 1019.1 hPa | 0 mm | - | 501 W/m² | - |
| 1777716005 | 15.56° C | 64% | 1019 hPa | 0 mm | - | 533 W/m² | - |
| 1777715705 | 16.67° C | 63% | 1018.9 hPa | 0 mm | - | 433 W/m² | - |
| 1777715405 | 16.11° C | 64% | 1019 hPa | 0 mm | - | 530 W/m² | - |
| 1777715105 | 15.56° C | 64% | 1019 hPa | 0 mm | - | 570 W/m² | - |
| 1777714805 | 15.56° C | 65% | 1019.2 hPa | 0 mm | - | 386 W/m² | - |
| 1777714505 | 15.56° C | 65% | 1019.2 hPa | 0 mm | - | 331 W/m² | - |
| 1777714205 | 15° C | 66% | 1019.2 hPa | 0 mm | - | 334 W/m² | - |
| 1777713905 | 15° C | 66% | 1019.1 hPa | 0 mm | - | 319 W/m² | - |
| 1777713605 | 15.56° C | 67% | 1019.1 hPa | 0 mm | - | 452 W/m² | - |
| 1777713305 | 15° C | 67% | 1019.1 hPa | 0 mm | - | 368 W/m² | - |
| 1777713005 | 14.44° C | 68% | 1019.3 hPa | 0 mm | - | 456 W/m² | - |
| 1777712705 | 15° C | 68% | 1019.3 hPa | 0 mm | - | 381 W/m² | - |
| 1777712405 | 15° C | 69% | 1019.5 hPa | 0 mm | - | 333 W/m² | - |
| 1777712105 | 15.56° C | 67% | 1019.3 hPa | 0 mm | - | 506 W/m² | - |
* Rain latest hour (hover to see other rain measurements)
** Current wind speed in m/s (hover to see current wind gust speed)